Flag for Germany Weather past 2 weeks in Naumburg (Saale), Saxony-Anhalt, Germany

Now
63 °F

Light rain. Overcast.


Feels Like: 63 °F
Forecast: 57 / 78 °F
Wind: 2 mph from East

Location: Gera-Leumnitz

Current Time: Aug 28, 2015 at 2:21:57 AM

Latest Report: Aug 28, 2015 at 2:00 AM


Visibility: 18 mi

Pressure: 29.87 "Hg

Humidity: 85%

Dew point: 58 °F

Location of Naumburg (Saale)Location

Historic Weather in Naumburg (Saale) — Graph

°F

Naumburg (Saale) temperature yesterday

Maximum temperature yesterday: 84 °F (at 4:00 PM)
Minimum temperature yesterday: 58 °F (at 2:00 AM)
Average temperature yesterday: 73 °F

Past Weeks' High & Low Weather Summary

 TemperatureHumidityPressure
High93 °F (Aug 14, 4:00 PM)100% (Aug 19, 7:00 AM)30.31 "Hg (Aug 19, 7:00 AM)
Low48 °F (Aug 22, 6:00 AM)30% (Aug 14, 4:00 PM)29.67 "Hg (Aug 14, 5:00 PM)
Average65 °F75%29.96 "Hg
* Reported Aug 12 11:00 PM — Aug 27 11:00 PM, Naumburg (Saale), Weather by CustomWeather, © 2015

Note: Actual official high and low records may vary slightly from our data, if they occured in-between our weather recording intervals... More about our weather records

Advertising

Naumburg (Saale) weather history for previous 24 hours

 ConditionsComfort  
Time TempWeatherWind HumidityBarometerVisibility
11:00 PM
Thu, Aug 27
75 °FOvercast.7 mph49%29.80 "Hg43 mi
10:00 PM76 °FOvercast.7 mph47%29.78 "Hg43 mi
9:00 PM77 °FOvercast.8 mph43%29.78 "Hg43 mi
8:00 PM79 °FOvercast.8 mph42%29.78 "Hg47 mi
7:00 PM81 °FOvercast.8 mph41%29.78 "Hg47 mi
6:00 PM82 °FOvercast.8 mph39%29.79 "Hg47 mi
5:00 PM83 °FOvercast.7 mph39%29.81 "Hg47 mi
4:00 PM84 °FOvercast.8 mph37%29.83 "Hg47 mi
3:00 PM83 °FOvercast.6 mph38%29.85 "Hg47 mi
2:00 PM83 °FOvercast.5 mph40%29.86 "Hg47 mi
1:00 PM81 °FOvercast.6 mph41%29.87 "Hg47 mi
12:00 PM77 °FOvercast.5 mph43%29.90 "Hg47 mi
11:00 AM76 °FOvercast.5 mph47%29.89 "Hg47 mi
10:00 AM72 °FOvercast.6 mph50%29.90 "Hg47 mi
9:00 AM66 °FOvercast.7 mph55%29.91 "Hg47 mi
8:00 AM64 °FOvercast.7 mph58%29.89 "Hg47 mi
7:00 AM62 °FOvercast.6 mph56%29.89 "Hg47 mi
4:00 AM60 °FOvercast.6 mph60%29.92 "Hg43 mi
3:00 AM60 °FOvercast.6 mph64%29.93 "Hg43 mi
2:00 AM58 °FPassing clouds.6 mph71%29.93 "Hg43 mi
Weather by CustomWeather, © 2015

See weather overviewHow to use our weather pages